Tracking 19717 objects as of 24-Jun-2019
HD Live streaming from Space Station
objects crossing your sky now

EKRAN 4

Track EKRAN 4 now!
EKRAN 4 is classified as:


NORAD ID: 11561
Int'l Code: 1979-087A
Perigee: 35,725.5 km
Apogee: 35,833.2 km
Inclination: 11.5 °
Period: 1,435.4 minutes
Semi major axis: 42150 km
RCS: 0.1995 m2 (medium)
Launch date: October 3, 1979
Source: Commonwealth of Independent States (former USSR) (CIS)
Launch site: TYURATAM MISSILE AND SPACE COMPLEX (TTMTR)
aabbcc
Your satellite tracking list
Your tracking list is empty




NASA's NSSDC Master Catalog

Two Line Element Set (TLE):
1 11561U 79087A   19175.42879434 -.00000103  00000-0  00000+0 0  9993
2 11561  11.5102 314.1269 0012780 117.8025  69.2245  1.00323167107351
Source of the keplerian elements: AFSPC